KLM1040 EHAM-LOWW

Flight info

Callsign KLM1040
Flight time N/A
Altitude 35000
Route ARNEM L620 HMM DCT NOMKA DCT OMELO DCT EVIKU DCT BITSI DCT MIKOV MIKOV8W
Aircraft B738/M-SDE2E3FGHIRWXY/LB1

Departure

Time 2026-04-28 16:10
Airport Amsterdam Airport Schiphol (EHAM)

Arrival

Time N/A
Airport Vienna International Airport (LOWW)
Time Latitude Longitude Altitude Speed Heading
2026-04-28 15:34 52.30990 4.77239 -3 ft 0 kts 182°
2026-04-28 15:37 52.30991 4.77239 -3 ft 0 kts 182°
2026-04-28 15:57 52.31001 4.77239 -3 ft 4 kts 182°
2026-04-28 15:57 52.31028 4.77240 -3 ft 4 kts 182°
2026-04-28 15:57 52.31054 4.77244 -3 ft 4 kts 200°
2026-04-28 15:57 52.31073 4.77267 -3 ft 4 kts 249°
2026-04-28 15:58 52.31077 4.77309 -3 ft 4 kts 272°
2026-04-28 15:58 52.31077 4.77302 -3 ft 4 kts 272°
2026-04-28 15:58 52.31078 4.77264 -3 ft 1 kts 272°
2026-04-28 16:01 52.31078 4.77258 -3 ft 2 kts 272°
2026-04-28 16:01 52.31080 4.77207 -3 ft 7 kts 273°
2026-04-28 16:01 52.31082 4.77119 -3 ft 9 kts 272°
2026-04-28 16:01 52.31086 4.77002 -3 ft 11 kts 276°
2026-04-28 16:02 52.31126 4.76938 -3 ft 10 kts 352°
2026-04-28 16:02 52.31195 4.76987 -3 ft 10 kts 33°
2026-04-28 16:02 52.31255 4.77051 -3 ft 8 kts 34°
2026-04-28 16:02 52.31312 4.77114 -3 ft 11 kts 34°
2026-04-28 16:03 52.31375 4.77179 -3 ft 11 kts 26°
2026-04-28 16:03 52.31449 4.77184 -3 ft 10 kts 339°
2026-04-28 16:03 52.31484 4.77087 -4 ft 12 kts 272°
2026-04-28 16:03 52.31481 4.76933 -3 ft 15 kts 267°
2026-04-28 16:04 52.31476 4.76744 -3 ft 19 kts 267°
2026-04-28 16:04 52.31470 4.76530 -3 ft 18 kts 268°
2026-04-28 16:04 52.31465 4.76333 -3 ft 17 kts 268°
2026-04-28 16:04 52.31454 4.76147 -3 ft 16 kts 263°
2026-04-28 16:05 52.31446 4.75967 -3 ft 15 kts 268°
2026-04-28 16:05 52.31443 4.75798 -3 ft 15 kts 267°
2026-04-28 16:05 52.31436 4.75631 -3 ft 14 kts 266°
2026-04-28 16:05 52.31430 4.75476 -4 ft 14 kts 266°
2026-04-28 16:06 52.31425 4.75324 -3 ft 13 kts 265°
2026-04-28 16:06 52.31418 4.75179 -3 ft 13 kts 269°
2026-04-28 16:06 52.31414 4.75035 -4 ft 13 kts 267°
2026-04-28 16:06 52.31410 4.74883 -3 ft 14 kts 266°
2026-04-28 16:07 52.31409 4.74733 -3 ft 11 kts 284°
2026-04-28 16:07 52.31451 4.74673 -3 ft 9 kts 353°
2026-04-28 16:07 52.31571 4.74661 -2 ft 8 kts 357°
2026-04-28 16:08 52.31622 4.74665 -1 ft 8 kts 11°
2026-04-28 16:08 52.31665 4.74712 -1 ft 6 kts 69°
2026-04-28 16:08 52.31667 4.74733 -1 ft 0 kts 86°
2026-04-28 16:09 52.31670 4.74809 -2 ft 30 kts 86°
2026-04-28 16:09 52.31695 4.75529 -7 ft 93 kts 87°
2026-04-28 16:09 52.31742 4.76868 -3 ft 141 kts 85°
2026-04-28 16:10 52.31826 4.80332 904 ft 157 kts 82°
2026-04-28 16:10 52.31894 4.82095 1598 ft 155 kts 83°
2026-04-28 16:10 52.32021 4.86037 2216 ft 195 kts 89°
2026-04-28 16:11 52.30960 4.90647 2681 ft 241 kts 109°
2026-04-28 16:11 52.29634 4.95773 4109 ft 247 kts 110°
2026-04-28 16:12 52.28675 5.01218 5608 ft 245 kts 104°
2026-04-28 16:12 52.28215 5.03931 6046 ft 245 kts 104°
2026-04-28 16:13 52.27268 5.09377 6810 ft 257 kts 105°
2026-04-28 16:13 52.26943 5.11239 7354 ft 254 kts 104°
2026-04-28 16:13 52.25812 5.17724 9107 ft 260 kts 105°